INTELSAT 18 (IS-18)

Last updated on Wed Mar 11 2026 00:02:52 GMT+0000 (Coordinated Universal Time)

1 37834U 11056A 26069.36294661 .00000054 00000+0 00000+0 0 9995 2 37834 0.0234 247.8626 0001699 120.2567 110.5417 1.00270002 52827
UTC large
Height (km)
Speed (km/s)
/
Latitude / Longitude
Inclination (degrees)
Orbital Period (minutes)
Azimuth
Elevation
Range (km)
Doppler Factor

Next 0 passes for location: London (51.5072 / 0.1276)

Sorry there are no passes over London.